Flag for U.S.A. Weather past 2 weeks in Birmingham, Alabama, U.S.A.

Now
82 °F

Scattered clouds.


Feels Like: 86 °F
Forecast: 71 / 86 °F
Wind: 8 mph from West

Location: Birmingham International Airport

Current Time: Jul 24, 2014 at 10:59:47 AM

Latest Report: Jul 24, 2014 at 9:53 AM


Visibility: 10 mi

Pressure: 30.01 "Hg

Humidity: 67%

Dew point: 70 °F

Location of BirminghamLocation

Historic Weather in Birmingham — Graph

°F

Birmingham temperature yesterday

Maximum temperature yesterday: 88 °F (at 3:53 PM)
Minimum temperature yesterday: 72 °F (at 4:53 AM)
Average temperature yesterday: 79 °F

Past Weeks' High & Low Weather Summary

 TemperatureHumidityPressure
High94 °F (Jul 13, 1:53 PM)97% (Jul 15, 3:53 AM)30.18 "Hg (Jul 15, 3:53 AM)
Low61 °F (Jul 17, 2:53 AM)33% (Jul 16, 2:53 PM)29.85 "Hg (Jul 15, 4:53 PM)
Average78 °F71%30.03 "Hg
* Reported Jul 9 9:53 AM — Jul 24 9:53 AM, Birmingham, Weather by CustomWeather, © 2014

Note: Actual official high and low records may vary slightly from our data, if they occured in-between our weather recording intervals... More about our weather records

Advertising

Birmingham weather history for previous 24 hours

 ConditionsComfort  
Time TempWeatherWind HumidityBarometerVisibility
9:53 AM
Jul 24
82 °FScattered clouds.8 mph67%30.01 "Hg10 mi
8:53 AM80 °FPassing clouds.7 mph67%30.01 "Hg10 mi
7:53 AM77 °FScattered clouds.6 mph77%30.00 "Hg10 mi
6:53 AM74 °FScattered clouds.No wind88%30.00 "Hg10 mi
5:53 AM72 °FPassing clouds.No wind91%29.98 "Hg10 mi
4:53 AM73 °FPassing clouds.No wind90%29.97 "Hg10 mi
3:53 AM74 °FOvercast.No wind85%29.96 "Hg10 mi
2:53 AM74 °FMostly cloudy.No wind91%29.97 "Hg10 mi
1:53 AM73 °FPassing clouds.3 mph90%29.99 "Hg10 mi
12:53 AM73 °FPassing clouds.No wind90%30.00 "Hg10 mi
11:53 PM
Jul 23
73 °FPassing clouds.No wind90%30.01 "Hg10 mi
10:53 PM75 °FPassing clouds.9 mph88%30.02 "Hg10 mi
9:53 PM78 °FPassing clouds.No wind84%30.01 "Hg10 mi
8:53 PM79 °FPassing clouds.5 mph79%29.99 "Hg10 mi
7:53 PM80 °FPartly sunny.No wind79%29.98 "Hg10 mi
6:53 PM81 °FPartly sunny.6 mph74%29.99 "Hg10 mi
5:53 PM81 °FSunny.3 mph69%29.98 "Hg10 mi
4:53 PM80 °FLight rain. Broken clouds.12 mph74%30.00 "Hg10 mi
3:53 PM88 °FScattered clouds.6 mph54%30.00 "Hg10 mi
2:53 PM86 °FBroken clouds.6 mph57%30.02 "Hg10 mi
1:53 PM78 °FThunderstorms. Broken clouds.8 mph79%30.05 "Hg9 mi
12:53 PM81 °FLight rain. Partly sunny.10 mph67%30.07 "Hg9 mi
11:53 AM84 °FPartly sunny.No wind61%30.07 "Hg10 mi
10:53 AM83 °FScattered clouds.No wind65%30.08 "Hg10 mi
Weather by CustomWeather, © 2014

See weather overviewHow to use our weather pages